星链-5485 (STARLINK-5485 )

导读 | 豆包AI

STARLINK-5485是美国SpaceX公司星链(Starlink)星座的一员,于2023年7月7日发射入轨。星链项目旨在构建全球卫星互联网,为全球偏远地区、海洋航空等场景提供高速宽带服务。作为低轨通信卫星,它运行在近地轨道,配备相控阵天线,支持星间激光通信,可与组网卫星协同,助力实现全球无缝网络覆盖,是星链星座扩容的重要组成部分。

基本信息
目录编号:
57261
目录名称:
STARLINK-5485
国际标识:
2023-094AV
轨道中心:
EARTH
卫星名称:
星链-5485
卫星全名:
星链-5485 (STARLINK-5485 )
卫星状态:
在轨 (已飞行982 天)
发射日期:
2023-07-07 UTC
国别 :
美国 (US)
星等 :
--
轨道信息
数据来源 国际轨道数据
星历时间: 2026-03-15T22:00:02+0800
9小时前
查看轨道信息
半长轴: 6880.28km
偏心率: 0.0002079
轨道倾角: 43.002°
近地点辐角 256.475°
升交点赤经 356.894°
平近点角 83.858°
近地点: 500.712km
远地点: 503.574km
周期: 94.661分钟
每日圈数: 15.212257
详细信息
固有亮度:
5
最大亮度:
2.4
卫星平台:
Starlink v1.5
覆盖范围:
全球
运营商:
太空探索技术公司
运营商所在国:
美国
制造商(研发单位):
太空探索技术公司
制造商所在国:
美国
使用方式:
暂无
卫星简介
星链(Starlink)计划是由太空探索技术公司(SpaceX)提出的一个巨型低轨卫星互联网星座项目,计划在2019年至2024年间在太空搭建由约1.2万颗卫星组成的“星链”网络,其中1584颗将部署在地球上空550千米处的近地轨道,并从2020年开始工作。该卫星仍在工作。
2D轨道图
3D轨道图
轨道高度分析图
轨道倾角分析图
轨道综合分析图
查看轨道综合分析图